Flag for Denmark Weather past 2 weeks in Aarhus, Denmark

Now
63 °F

Drizzle. Overcast.


Feels Like: 63 °F
Forecast: 58 / 68 °F
Wind: 5 mph from East

Location: Tirstrup

Current Time: Aug 31, 2015 at 11:14:30 AM

Latest Report: Aug 31, 2015 at 10:20 AM


Visibility: N/A

Pressure: 30.04 "Hg

Humidity: 64%

Dew point: 50 °F

Location of AarhusLocation

Historic Weather in Aarhus — Graph

°F

Aarhus temperature yesterday

Maximum temperature yesterday: 68 °F (at 2:20 PM)
Minimum temperature yesterday: 54 °F (at 7:20 AM)
Average temperature yesterday: 62 °F

Past Weeks' High & Low Weather Summary

 TemperatureHumidityPressure
High77 °F (Aug 17, 2:20 PM)88% (Aug 16, 1:20 PM)30.36 "Hg (Aug 16, 1:20 PM)
Low50 °F (Aug 22, 6:20 AM)24% (Aug 22, 2:50 PM)29.62 "Hg (Aug 25, 4:20 AM)
Average65 °F64%30.03 "Hg
* Reported Aug 16 9:20 AM — Aug 31 9:50 AM, Aarhus, Weather by CustomWeather, © 2015

Note: Actual official high and low records may vary slightly from our data, if they occured in-between our weather recording intervals... More about our weather records

Advertising

Aarhus weather history for previous 24 hours

 ConditionsComfort  
Time TempWeatherWind HumidityBarometerVisibility
9:50 AM
Mon, Aug 31
63 °FOvercast.3 mph68%30.04 "HgN/A
9:20 AM61 °FPartly sunny.3 mph83%30.04 "HgN/A
8:50 AM61 °FOvercast.5 mph83%30.04 "HgN/A
8:20 AM61 °FOvercast.5 mph83%30.04 "HgN/A
7:50 AM61 °FLight rain. Overcast.1 mph77%30.04 "HgN/A
7:20 AM59 °FOvercast.5 mph88%30.04 "HgN/A
6:50 AM59 °FSprinkles. Overcast.1 mph82%30.04 "Hg4 mi
6:20 AM59 °FOvercast.5 mph82%30.07 "Hg4 mi
5:50 AM59 °FSprinkles. Overcast.2 mph82%30.07 "Hg4 mi
5:20 AM59 °FOvercast.2 mph82%30.07 "Hg5 mi
4:50 AM59 °FOvercast.1 mph82%30.07 "Hg5 mi
4:20 AM59 °FOvercast.1 mph82%30.07 "HgN/A
3:50 AM59 °FPassing clouds.1 mph82%30.09 "HgN/A
3:20 AM59 °FOvercast.No wind82%30.09 "HgN/A
2:50 AM59 °FPassing clouds.1 mph82%30.09 "HgN/A
2:20 AM59 °FPassing clouds.2 mph82%30.09 "HgN/A
1:50 AM59 °FPassing clouds.1 mph82%30.09 "HgN/A
1:20 AM59 °FPassing clouds.No wind82%30.09 "HgN/A
12:50 AM59 °FPassing clouds.1 mph77%30.12 "HgN/A
12:20 AM59 °FPassing clouds.1 mph77%30.12 "HgN/A
11:20 PM
Sun, Aug 30
61 °FPassing clouds.No wind77%30.12 "HgN/A
10:50 PM61 °FPassing clouds.No wind72%30.12 "HgN/A
10:20 PM61 °FPartly cloudy.1 mph72%30.12 "HgN/A
9:20 PM63 °FPassing clouds.2 mph68%30.12 "HgN/A
8:50 PM63 °FPartly sunny.2 mph68%30.12 "HgN/A
8:20 PM63 °FPartly sunny.3 mph68%30.12 "HgN/A
7:50 PM64 °FScattered clouds.3 mph64%30.12 "HgN/A
7:20 PM64 °FPartly sunny.5 mph64%30.12 "HgN/A
6:50 PM66 °FPartly sunny.7 mph60%30.12 "HgN/A
6:20 PM68 °FPassing clouds.5 mph56%30.12 "HgN/A
5:50 PM66 °FPartly sunny.6 mph60%30.12 "HgN/A
5:20 PM68 °FScattered clouds.3 mph56%30.12 "HgN/A
4:50 PM68 °FPassing clouds.2 mph56%30.12 "HgN/A
4:20 PM68 °FBroken clouds.5 mph56%30.12 "HgN/A
3:50 PM68 °FScattered clouds.3 mph53%30.12 "HgN/A
3:20 PM68 °FBroken clouds.3 mph49%30.15 "HgN/A
2:50 PM68 °FPartly sunny.5 mph53%30.15 "HgN/A
2:20 PM68 °FPartly sunny.2 mph49%30.15 "HgN/A
1:50 PM66 °FPartly sunny.1 mph52%30.15 "HgN/A
1:20 PM66 °FPartly sunny.1 mph52%30.15 "HgN/A
12:50 PM66 °FPartly sunny.1 mph56%30.15 "HgN/A
12:20 PM66 °FPartly sunny.1 mph52%30.15 "HgN/A
11:50 AM64 °FPartly sunny.1 mph60%30.15 "HgN/A
11:20 AM64 °FPartly sunny.2 mph64%30.15 "HgN/A
Weather by CustomWeather, © 2015

See weather overviewHow to use our weather pages